GW3393 Weather Reports


time (UTC)temp
F
wind
direction
speed
knots
gust
knots
rain 1hr
in
rain 24hr
in
rain mn
in
humidity
%
barometer
mb
20260507233254 58 309 5.2 7.0 0.00 0.00 0.00 43 1013.6
20260507232751 58 259 5.2 6.1 0.00 0.00 0.00 42 1013.4
20260507232247 58 281 5.2 8.7 0.00 0.00 0.00 41 1013.5
20260507231744 58 266 8.7 11.3 0.00 0.00 0.00 42 1013.4
20260507231240 58 319 7.8 10.4 0.00 0.00 0.00 42 1013.3
20260507230738 58 260 9.6 14.8 0.00 0.00 0.00 41 1013.3
20260507230235 59 238 4.3 9.6 0.00 0.00 0.00 42 1013.3
20260507225735 59 278 2.6 12.2 0.00 0.00 0.00 41 1013.3
20260507225231 59 280 3.5 8.7 0.00 0.00 0.00 41 1013.2
20260507224727 59 285 4.3 10.4 0.00 0.00 0.00 39 1013.2
20260507224224 59 281 7.8 7.8 0.00 0.00 0.00 41 1013.3
20260507223720 59 288 4.3 12.2 0.00 0.00 0.00 42 1013.2
20260507223217 59 240 4.3 8.7 0.00 0.00 0.00 41 1013.2
20260507222713 60 296 4.3 7.0 0.00 0.00 0.00 41 1013.3
20260507222209 59 307 7.0 14.8 0.00 0.00 0.00 41 1013.0
20260507221706 59 281 7.0 12.2 0.00 0.00 0.00 41 1012.9
20260507221203 60 231 3.5 13.0 0.00 0.00 0.00 40 1012.9
20260507220659 60 252 3.5 13.0 0.00 0.00 0.00 40 1013.1
20260507220158 60 268 6.1 11.3 0.00 0.00 0.00 39 1013.0
20260507215653 60 248 6.1 8.7 0.00 0.00 0.00 42 1012.9
20260507215151 61 309 4.3 10.4 0.00 0.00 0.00 39 1012.7
20260507214648 61 286 4.3 7.8 0.00 0.00 0.00 41 1012.7
20260507214144 60 254 6.1 13.9 0.00 0.00 0.00 40 1012.6
20260507213640 61 312 4.3 7.0 0.00 0.00 0.00 41 1012.6
20260507213138 61 260 7.0 8.7 0.00 0.00 0.00 41 1012.4
20260507212634 59 286 2.6 8.7 0.00 0.00 0.00 44 1012.8
20260507212131 59 227 6.1 13.9 0.00 0.00 0.00 41 1012.7
20260507211628 59 247 4.3 13.9 0.00 0.00 0.00 41 1012.6
20260507211123 59 270 3.5 8.7 0.00 0.00 0.00 43 1012.4
20260507210622 60 272 7.0 13.0 0.00 0.00 0.00 43 1012.3
20260507210118 59 254 6.1 12.2 0.00 0.00 0.00 43 1012.6
20260507205615 60 268 4.3 13.0 0.00 0.00 0.00 42 1012.4
20260507205111 60 234 8.7 10.4 0.00 0.00 0.00 42 1012.8
20260507204607 60 312 7.8 13.0 0.00 0.00 0.00 44 1012.6
20260507204104 60 269 8.7 15.6 0.00 0.00 0.00 42 1012.4
20260507203602 60 322 4.3 13.9 0.00 0.00 0.00 42 1012.4
20260507203100 61 303 4.3 11.3 0.00 0.00 0.00 42 1012.3
20260507202555 60 286 9.6 12.2 0.00 0.00 0.00 41 1012.3
20260507202051 60 250 7.0 15.6 0.00 0.00 0.00 42 1012.4
20260507201547 61 264 10.4 17.4 0.00 0.00 0.00 43 1012.4
20260507201044 61 216 6.1 7.0 0.00 0.00 0.00 43 1012.4
20260507200539 60 280 4.3 10.4 0.00 0.00 0.00 43 1012.7
20260507200036 59 256 6.1 13.0 0.00 0.00 0.00 44 1012.7
20260507195533 59 288 5.2 13.9 0.00 0.00 0.00 45 1012.8
20260507195030 60 225 7.0 7.8 0.00 0.00 0.00 47 1012.9
20260507194527 60 253 3.5 11.3 0.00 0.00 0.00 47 1013.0
20260507194023 61 247 7.8 14.8 0.00 0.00 0.00 42 1013.0
20260507193520 61 280 13.0 17.4 0.00 0.00 0.00 44 1013.0
20260507193017 61 297 7.8 17.4 0.00 0.00 0.00 42 1013.2
20260507192513 60 256 7.0 9.6 0.00 0.00 0.00 45 1012.9
20260507192010 58 279 7.8 15.6 0.00 0.00 0.00 45 1013.0
20260507191505 60 254 5.2 12.2 0.00 0.00 0.00 44 1012.9
20260507191003 59 299 4.3 11.3 0.00 0.00 0.00 44 1013.2
20260507190500 60 265 7.0 14.8 0.00 0.00 0.00 44 1013.3
20260507185959 60 264 7.8 13.0 0.00 0.00 0.00 44 1013.2
20260507185456 60 270 2.6 11.3 0.00 0.00 0.00 44 1013.1
20260507184952 58 284 7.8 11.3 0.00 0.00 0.00 46 1013.2
20260507184450 60 311 7.8 13.0 0.00 0.00 0.00 45 1013.1
20260507183948 59 236 6.1 14.8 0.00 0.00 0.00 45 1013.2
20260507183444 59 302 8.7 14.8 0.00 0.00 0.00 45 1013.2
20260507182941 60 252 6.1 15.6 0.00 0.00 0.00 46 1013.3
20260507182437 58 284 7.8 11.3 0.00 0.00 0.00 46 1013.1
20260507181934 58 292 7.8 14.8 0.00 0.00 0.00 45 1013.2
20260507181430 60 261 8.7 16.5 0.00 0.00 0.00 43 1013.2
20260507180927 59 276 4.3 8.7 0.00 0.00 0.00 47 1013.3
20260507180423 58 287 4.3 7.8 0.00 0.00 0.00 48 1013.3
20260507175919 57 305 4.3 6.1 0.00 0.00 0.00 50 1013.5
20260507175417 57 286 5.2 8.7 0.00 0.00 0.00 50 1013.4
20260507174914 57 305 5.2 8.7 0.00 0.00 0.00 48 1013.4
20260507174412 57 4 3.5 6.1 0.00 0.00 0.00 49 1013.4
20260507173909 56 289 4.3 9.6 0.00 0.00 0.00 47 1013.6
20260507173406 57 21 1.7 11.3 0.00 0.00 0.00 48 1013.7
20260507172902 60 279 8.7 17.4 0.00 0.00 0.00 48 1013.6
20260507172359 59 295 5.2 9.6 0.00 0.00 0.00 46 1013.7
20260507171855 58 281 3.5 12.2 0.00 0.00 0.00 47 1013.9
20260507171351 58 306 5.2 14.8 0.00 0.00 0.00 47 1014.0
20260507170849 58 312 3.5 11.3 0.00 0.00 0.00 46 1014.1
20260507170345 59 212 3.5 4.3 0.00 0.00 0.00 54 1014.3
20260507165842 57 198 5.2 9.6 0.00 0.00 0.00 49 1014.2
20260507165337 55 310 4.3 6.1 0.00 0.00 0.00 50 1014.3
20260507164834 55 278 3.5 8.7 0.00 0.00 0.00 49 1014.0
20260507164331 56 331 10.4 10.4 0.00 0.00 0.00 50 1014.3
20260507163828 57 282 1.7 4.3 0.00 0.00 0.00 51 1014.3
20260507163325 55 258 4.3 6.1 0.00 0.00 0.00 51 1014.3
20260507162821 56 285 7.0 9.6 0.00 0.00 0.00 50 1014.4
20260507162317 58 236 6.1 7.8 0.00 0.00 0.00 48 1014.3
20260507161814 58 217 7.8 8.7 0.00 0.00 0.00 48 1014.3
20260507161311 57 254 1.7 4.3 0.00 0.00 0.00 49 1014.6
20260507160807 55 288 6.1 8.7 0.00 0.00 0.00 52 1014.6
20260507160303 55 314 4.3 6.1 0.00 0.00 0.00 52 1014.5
20260507155759 55 284 2.6 7.0 0.00 0.00 0.00 52 1014.6
20260507155255 57 159 1.7 5.2 0.00 0.00 0.00 53 1014.6
20260507154752 56 270 0.0 2.6 0.00 0.00 0.00 55 1014.7
20260507154250 55 353 1.7 6.1 0.00 0.00 0.00 54 1014.9
20260507153746 57 17 2.6 7.8 0.00 0.00 0.00 50 1014.7
20260507153242 56 148 0.9 3.5 0.00 0.00 0.00 52 1014.7
20260507152739 54 301 2.6 6.1 0.00 0.00 0.00 51 1014.9
20260507152236 54 264 3.5 7.8 0.00 0.00 0.00 54 1014.9
20260507151731 56 237 0.0 4.3 0.00 0.00 0.00 55 1014.9
20260507151228 55 315 1.7 6.1 0.00 0.00 0.00 55 1014.9
20260507150725 54 275 3.5 7.8 0.00 0.00 0.00 58 1015.0
20260507150222 54 268 4.3 7.8 0.00 0.00 0.00 56 1015.0
20260507145718 56 123 2.6 4.3 0.00 0.00 0.00 56 1015.3
20260507145214 56 133 4.3 6.1 0.00 0.00 0.00 56 1015.3
20260507144711 55 151 0.0 7.8 0.00 0.00 0.00 60 1015.3
20260507144210 55 180 0.9 6.1 0.00 0.00 0.00 57 1015.4
20260507143706 56 258 0.9 2.6 0.00 0.00 0.00 57 1015.3
20260507143203 54 251 5.2 9.6 0.00 0.00 0.00 56 1015.6
20260507142658 55 223 6.1 8.7 0.00 0.00 0.00 56 1015.7
20260507142155 53 132 1.7 6.1 0.00 0.00 0.00 57 1015.6
20260507141651 53 57 1.7 2.6 0.00 0.00 0.00 61 1015.7
20260507141149 52 311 0.0 4.3 0.00 0.00 0.00 60 1015.6
20260507140645 52 281 2.6 8.7 0.00 0.00 0.00 59 1015.9
20260507140142 54 293 7.0 8.7 0.00 0.00 0.00 57 1015.9
20260507135639 54 190 2.6 2.6 0.00 0.00 0.00 60 1015.9
20260507135137 54 210 2.6 7.0 0.00 0.00 0.00 61 1016.2
20260507134633 53 301 2.6 7.0 0.00 0.00 0.00 58 1016.2
20260507134129 53 261 3.5 7.0 0.00 0.00 0.00 58 1016.1
20260507133625 54 280 2.6 2.6 0.00 0.00 0.00 59 1016.2
20260507133123 54 47 2.6 4.3 0.00 0.00 0.00 59 1016.1
20260507132620 53 294 0.9 4.3 0.00 0.00 0.00 63 1016.1
20260507132116 54 192 1.7 4.3 0.00 0.00 0.00 63 1016.3
20260507131613 53 141 0.0 2.6 0.00 0.00 0.00 66 1016.3
20260507131111 55 180 2.6 4.3 0.00 0.00 0.00 68 1016.5
20260507130607 53 188 2.6 3.5 0.00 0.00 0.00 66 1016.3
20260507130105 53 145 4.3 5.2 0.00 0.00 0.00 66 1016.1
20260507125604 54 180 1.7 5.2 0.00 0.00 0.00 71 1016.3
20260507125101 52 150 3.5 4.3 0.00 0.00 0.00 70 1016.3
20260507124557 52 142 2.6 5.2 0.00 0.00 0.00 74 1016.3
20260507124055 51 178 2.6 3.5 0.00 0.00 0.00 76 1016.4
20260507123553 50 168 1.7 3.5 0.00 0.00 0.00 78 1016.2
20260507123049 50 195 3.5 4.3 0.00 0.00 0.00 79 1016.2
20260507122545 50 135 2.6 3.5 0.00 0.00 0.00 81 1016.2
20260507122041 50 194 2.6 3.5 0.00 0.00 0.00 80 1016.2
20260507121536 49 180 2.6 2.6 0.00 0.00 0.00 81 1016.4
20260507121032 48 172 0.0 3.5 0.00 0.00 0.00 81 1016.3
20260507120528 49 192 3.5 3.5 0.00 0.00 0.00 81 1016.2
20260507120026 49 210 2.6 3.5 0.00 0.00 0.00 82 1016.2
20260507115522 48 183 2.6 2.6 0.00 0.00 0.00 82 1016.0
20260507115018 47 180 0.9 1.7 0.00 0.00 0.00 86 1016.2
20260507114514 47 217 1.7 2.6 0.00 0.00 0.00 87 1016.2
20260507114011 46 196 1.7 2.6 0.00 0.00 0.00 89 1016.1
20260507113508 46 180 0.9 1.7 0.00 0.00 0.00 90 1016.1
20260507113006 45 180 1.7 1.7 0.00 0.00 0.00 90 1016.0
20260507112503 45 180 0.0 1.7 0.00 0.00 0.00 89 1016.0
20260507111959 46 172 2.6 2.6 0.00 0.00 0.00 89 1016.2
20260507111457 45 209 1.7 1.7 0.00 0.00 0.00 89 1015.9
20260507110953 45 209 1.7 1.7 0.00 0.00 0.00 89 1015.7
20260507110449 45 199 1.7 1.7 0.00 0.00 0.00 89 1015.9
20260507105946 45 154 0.9 1.7 0.00 0.00 0.00 89 1016.0
20260507105443 45 206 0.9 2.6 0.00 0.00 0.00 88 1015.9
20260507104940 44 180 1.7 1.7 0.00 0.00 0.00 87 1015.6
20260507104437 45 180 0.0 1.7 0.00 0.00 0.00 85 1015.5
20260507103932 45 90 0.0 1.7 0.00 0.00 0.00 86 1015.6
20260507103429 44 75 0.0 0.9 0.00 0.00 0.00 86 1015.5
20260507102925 44 111 0.0 0.9 0.00 0.00 0.00 86 1015.5
20260507102423 43 45 0.0 1.7 0.00 0.00 0.00 85 1015.4
20260507101919 43 98 0.9 0.9 0.00 0.00 0.00 84 1015.5
20260507101414 44 90 0.0 0.9 0.00 0.00 0.00 84 1015.4
20260507100910 44 84 0.9 0.9 0.00 0.00 0.00 83 1015.6
20260507100408 44 29 0.0 2.6 0.00 0.00 0.00 82 1015.3
20260507095906 45 63 0.0 1.7 0.00 0.00 0.00 81 1015.5
20260507095403 45 20 0.9 2.6 0.00 0.00 0.00 80 1015.3
20260507094900 45 10 2.6 4.3 0.00 0.00 0.00 80 1015.4
20260507094357 45 31 4.3 4.3 0.00 0.00 0.00 80 1015.3
20260507093853 45 3 1.7 5.2 0.00 0.00 0.00 80 1015.3
20260507093352 46 21 4.3 6.1 0.00 0.00 0.00 80 1015.3
20260507092849 46 16 3.5 4.3 0.00 0.00 0.00 79 1015.4
20260507092345 46 15 2.6 4.3 0.00 0.00 0.00 79 1015.3
20260507091842 45 23 4.3 4.3 0.00 0.00 0.00 80 1015.0
20260507091338 46 36 4.3 4.3 0.00 0.00 0.00 79 1015.0
20260507090834 46 40 2.6 4.3 0.00 0.00 0.00 79 1015.2
20260507090331 46 13 2.6 5.2 0.00 0.00 0.00 78 1015.2
20260507085828 46 21 3.5 4.3 0.00 0.00 0.00 78 1015.2
20260507085325 46 34 3.5 4.3 0.00 0.00 0.00 79 1015.4
20260507084822 46 38 3.5 4.3 0.00 0.00 0.00 78 1015.3
20260507084318 47 15 1.7 5.2 0.00 0.00 0.00 76 1015.5
20260507083816 47 28 3.5 6.1 0.00 0.00 0.00 75 1015.2
20260507083312 47 26 7.0 8.7 0.00 0.00 0.00 75 1015.5
20260507082808 47 26 7.0 9.6 0.00 0.00 0.00 76 1015.3
20260507082306 47 37 6.1 10.4 0.00 0.00 0.00 77 1015.3
20260507081801 47 33 5.2 8.7 0.00 0.00 0.00 79 1015.4
20260507081257 48 38 2.6 6.1 0.00 0.00 0.00 82 1015.3
20260507080754 48 47 2.6 5.2 0.00 0.00 0.00 85 1015.3
20260507080250 48 30 3.5 4.3 0.00 0.00 0.00 86 1015.0
20260507075746 48 45 2.6 4.3 0.00 0.00 0.00 86 1015.4
20260507075242 48 19 1.7 5.2 0.00 0.00 0.00 86 1015.2
20260507074738 48 22 2.6 6.1 0.00 0.00 0.00 86 1015.3
20260507074237 48 8 1.7 2.6 0.00 0.00 0.00 86 1015.0
20260507073733 48 53 2.6 3.5 0.00 0.00 0.00 86 1015.2
20260507073229 48 32 2.6 5.2 0.00 0.00 0.00 85 1014.9
20260507072728 48 3 2.6 6.1 0.00 0.00 0.00 85 1015.3
20260507072225 48 14 4.3 7.0 0.00 0.00 0.00 85 1015.3
20260507071722 48 325 2.6 2.6 0.00 0.00 0.00 86 1014.9
20260507071218 48 2 2.6 4.3 0.00 0.00 0.00 86 1015.0
20260507070715 48 15 2.6 4.3 0.00 0.00 0.00 87 1014.9
20260507070212 49 14 2.6 2.6 0.00 0.00 0.00 87 1015.0
20260507065708 49 12 1.7 3.5 0.00 0.00 0.00 87 1015.0
20260507065206 49 14 4.3 6.1 0.00 0.00 0.00 88 1015.3
20260507064703 49 8 3.5 5.2 0.00 0.00 0.00 88 1015.0
20260507064202 49 23 2.6 6.1 0.00 0.00 0.00 87 1015.2
20260507063659 49 43 3.5 5.2 0.00 0.00 0.00 87 1015.3
20260507063155 49 358 2.6 4.3 0.00 0.00 0.00 88 1015.3
20260507062652 49 6 2.6 3.5 0.00 0.00 0.00 88 1015.3
20260507062150 49 31 3.5 7.0 0.00 0.00 0.00 88 1015.2
20260507061648 49 2 2.6 4.3 0.00 0.00 0.00 88 1015.0
20260507061145 50 47 2.6 4.3 0.00 0.00 0.00 88 1015.0
20260507060643 50 28 1.7 2.6 0.00 0.00 0.00 88 1015.0
20260507060139 50 21 2.6 4.3 0.00 0.00 0.00 87 1015.2
20260507055635 50 28 4.3 4.3 0.00 0.00 0.00 87 1015.2
20260507055131 50 22 3.5 5.2 0.00 0.00 0.00 87 1015.2
20260507054628 50 54 3.5 4.3 0.00 0.00 0.00 87 1015.3
20260507054125 50 42 2.6 5.2 0.00 0.00 0.00 87 1015.3
20260507053623 50 45 1.7 4.3 0.00 0.00 0.00 87 1015.5
20260507053121 50 46 3.5 3.5 0.00 0.00 0.00 87 1015.6
20260507052619 49 5 2.6 3.5 0.00 0.00 0.00 89 1015.7
20260507052115 49 337 0.0 4.3 0.00 0.00 0.00 92 1015.7
20260507051613 49 0 2.6 4.3 0.00 0.00 0.00 94 1015.7
20260507051109 48 4 2.6 6.1 0.00 0.00 0.00 96 1015.9
20260507050605 49 49 1.7 5.2 0.00 0.00 0.00 97 1015.8
20260507045559 49 82 0.0 4.3 0.00 0.00 0.00 98 1015.7
20260507045056 50 278 0.0 3.5 0.00 0.00 0.00 98 1015.6
20260507044552 50 279 0.0 2.6 0.00 0.00 0.00 98 1015.7
20260507044050 51 237 0.0 0.9 0.00 0.00 0.00 98 1015.5
20260507043545 51 257 0.9 1.7 0.00 0.00 0.00 98 1015.8
20260507043043 51 278 0.0 0.9 0.00 0.00 0.00 98 1015.4
20260507042538 51 263 0.0 1.7 0.00 0.00 0.00 98 1015.4
20260507042034 51 240 0.9 1.7 0.00 0.00 0.00 98 1015.4
20260507041531 51 297 0.0 1.7 0.00 0.00 0.00 98 1015.5
20260507041028 51 264 1.7 1.7 0.00 0.00 0.00 98 1015.5
20260507040525 51 278 0.9 1.7 0.00 0.00 0.00 98 1015.4
20260507040020 51 283 0.9 2.6 0.00 0.45 0.45 98 1015.3
20260507035517 51 263 0.9 1.7 0.00 0.45 0.45 97 1015.3
20260507035013 51 251 0.9 1.7 0.00 0.45 0.45 97 1015.4
20260507034510 51 270 1.7 1.7 0.00 0.45 0.45 97 1015.3
20260507034008 51 234 0.0 2.6 0.00 0.45 0.45 97 1015.4
20260507033506 51 203 0.0 2.6 0.00 0.45 0.45 98 1015.5
20260507033003 51 285 0.9 2.6 0.00 0.45 0.45 98 1015.5
20260507032500 51 233 0.0 2.6 0.00 0.45 0.45 98 1015.3
20260507031956 51 270 0.0 0.9 0.00 0.45 0.45 97 1015.7
20260507031452 51 261 0.0 1.7 0.00 0.45 0.45 97 1015.9
20260507030949 51 257 0.9 1.7 0.00 0.45 0.45 97 1015.9
20260507030446 51 255 0.0 1.7 0.00 0.45 0.45 97 1015.8
20260507025943 51 300 1.7 2.6 0.00 0.45 0.45 97 1015.6
20260507025441 51 250 2.6 2.6 0.00 0.45 0.45 96 1015.5
20260507024939 51 294 0.9 1.7 0.00 0.45 0.45 96 1015.3
20260507024436 51 254 0.9 0.9 0.00 0.45 0.45 96 1015.4
20260507023931 51 251 0.0 0.9 0.00 0.45 0.45 96 1015.5
20260507023428 51 270 0.0 1.7 0.00 0.45 0.45 96 1015.2
20260507022925 51 220 0.9 1.7 0.00 0.45 0.45 96 1015.0
20260507022423 51 209 0.9 1.7 0.00 0.45 0.45 96 1015.0
20260507021918 51 225 1.7 2.6 0.00 0.45 0.45 96 1015.2
20260507021413 51 203 0.0 1.7 0.00 0.45 0.45 96 1014.9
20260507020912 51 194 0.9 1.7 0.00 0.45 0.45 96 1015.0
20260507020408 51 180 0.0 0.9 0.00 0.45 0.45 96 1014.9
20260507015905 51 186 0.0 0.9 0.00 0.45 0.45 96 1014.8
20260507015403 51 180 0.0 0.9 0.00 0.45 0.45 96 1014.9
20260507014900 51 264 0.9 1.7 0.00 0.45 0.45 96 1015.0
20260507014356 51 246 0.9 1.7 0.00 0.45 0.45 96 1014.8
20260507013853 51 188 0.0 1.7 0.00 0.45 0.45 96 1015.0
20260507013350 51 180 0.0 1.7 0.00 0.45 0.45 96 1014.7
20260507012847 51 188 0.0 0.9 0.00 0.45 0.45 96 1014.6
20260507012343 51 188 0.0 1.7 0.00 0.45 0.45 96 1014.6
20260507011840 52 215 0.9 1.7 0.00 0.45 0.45 95 1014.9
20260507011337 52 213 1.7 2.6 0.00 0.45 0.45 95 1015.0
20260507010831 51 209 0.0 0.9 0.00 0.45 0.45 95 1014.6
20260507010327 51 109 0.0 0.0 0.00 0.45 0.45 94 1014.4
20260507005825 52 157 0.0 0.9 0.00 0.45 0.45 94 1014.1
20260507005322 52 90 0.0 1.7 0.00 0.45 0.45 94 1014.3
20260507004819 52 67 1.7 2.6 0.00 0.45 0.45 93 1014.1
20260507004316 52 90 2.6 2.6 0.00 0.45 0.45 93 1014.3
20260507003813 52 83 0.9 1.7 0.00 0.45 0.45 93 1014.5
20260507003308 52 90 0.0 0.9 0.00 0.45 0.45 92 1014.7
20260507002803 52 74 0.9 1.7 0.00 0.45 0.45 92 1014.5
20260507002259 52 66 0.0 2.6 0.00 0.45 0.45 92 1014.4
20260507001756 52 21 0.0 1.7 0.00 0.45 0.45 92 1014.3
20260507001254 52 33 1.7 2.6 0.00 0.45 0.45 92 1014.3
20260507000750 52 73 1.7 1.7 0.00 0.45 0.45 92 1014.3
20260507000246 52 60 0.9 1.7 0.00 0.45 0.45 92 1014.6
20260506235743 52 279 0.0 0.0 0.00 0.45 0.45 92 1015.0
20260506235238 52 246 0.0 0.0 0.00 0.45 0.45 92 1014.9
20260506234735 52 26 0.0 0.9 0.00 0.45 0.45 92 1014.8
20260506234232 52 261 0.0 0.0 0.00 0.45 0.45 92 1014.6
20260506233730 52 245 0.0 1.7 0.00 0.45 0.45 92 1014.6